Location: Alafon
(8.4500°N, 4.2333°E)
Time: 17:06:35
(UTC+00:00)

A-11 Canister half - Pass Details

Date: 10 August 2021
Orbit: 1515 x 1685 km, 47.2° (Epoch: 19 September)

Event Time Altitude Azimuth Distance (km) Brightness Sun altitude
Rises 11:08:21 0° 214° (SW) 4,649 11.4 78.0°
Reaches altitude 10° 11:11:23 10° 212° (SSW) 3,670 11.0 78.6°
Maximum altitude 11:20:34 70° 129° (SE) 1,608 10.8 80.3°
Drops below altitude 10° 11:29:56 10° 47° (NE) 3,750 11.3 81.7°
Sets 11:33:04 0° 45° (NE) 4,757 11.7 82.1°
